,,Stat6,,Stat2,,Stat8,,Stat9,,Stat10,,Wind1,,Wind1,
time,status,PA1M_AVG,status,PR1M_SUM,status,RH1M_AVG,status,SR1M_AVG,status,TA1M_AVG,status,W1dAve1m,status,W1sAve1m,
2003-12-01, 00:00:00,VALID,918.133,VALID,0,VALID,100,VALID,-0.0339617,VALID,19.1095,VALID,88,VALID,0.473133,
2003-12-01, 00:01:00,VALID,918.126,VALID,0,VALID,100,VALID,-0.0849042,VALID,19.1028,VALID,101,VALID,0.449519,
2003-12-01, 00:02:00,VALID,918.119,VALID,0,VALID,100,VALID,-0.101885,VALID,19.1152,VALID,117,VALID,0.388081,
2003-12-01, 00:03:00,VALID,918.127,VALID,0,VALID,100,VALID,-0.0679233,VALID,19.1189,VALID,123,VALID,0.611421,
2003-12-01, 00:04:00,VALID,918.122,VALID,0,VALID,100,VALID,-0.0339617,VALID,19.1256,VALID,120,VALID,0.823153,
2003-12-01, 00:05:00,VALID,918.123,VALID,0,VALID,100,VALID,-0.0849042,VALID,19.1122,VALID,108,VALID,0.690217,
2003-12-01, 00:06:00,VALID,918.113,VALID,0,VALID,99.999,VALID,-0.0849042,VALID,19.1067,VALID,95,VALID,0.513445,
2003-12-01, 00:07:00,VALID,918.131,VALID,0,VALID,99.9583,VALID,-0.101885,VALID,19.1124,VALID,59,VALID,0.543857,
2003-12-01, 00:08:00,VALID,918.114,VALID,0,VALID,99.8807,VALID,-0.0849042,VALID,19.0963,VALID,63,VALID,0.371995,
2003-12-01, 00:09:00,VALID,918.116,VALID,0,VALID,99.7943,VALID,-0.0679233,VALID,19.0834,VALID,72,VALID,0.450817,
2003-12-01, 00:10:00,VALID,918.1,VALID,0,VALID,99.69,VALID,-0.0509425,VALID,19.0672,VALID,66,VALID,0.595486,
2003-12-01, 00:11:00,VALID,918.088,VALID,0,VALID,99.6391,VALID,-0.0339617,VALID,19.0444,VALID,59,VALID,0.666349,
2003-12-01, 00:12:00,VALID,918.076,VALID,0,VALID,99.6315,VALID,-0.0679233,VALID,19.0382,VALID,59,VALID,0.495206,
2003-12-01, 00:13:00,VALID,918.059,VALID,0,VALID,99.5959,VALID,-0.0509425,VALID,19.0119,VALID,59,VALID,0.425426,
2003-12-01, 00:14:00,VALID,918.046,VALID,0,VALID,99.5832,VALID,-0.0509425,VALID,18.9925,VALID,60,VALID,0.677401,
2003-12-01, 00:15:00,VALID,918.032,VALID,0,VALID,99.6175,VALID,-0.0679233,VALID,18.9964,VALID,70,VALID,0.858817,
2003-12-01, 00:16:00,VALID,918.022,VALID,0,VALID,99.6442,VALID,-0.0679233,VALID,18.98,VALID,77,VALID,0.94375,
2003-12-01, 00:17:00,VALID,918.018,VALID,0,VALID,99.7307,VALID,-0.0849042,VALID,18.9671,VALID,75,VALID,0.96147,
2003-12-01, 00:18:00,VALID,918.026,VALID,0,VALID,99.7675,VALID,-0.0849042,VALID,18.9669,VALID,74,VALID,0.884415,
2003-12-01, 00:19:00,VALID,918.028,VALID,0,VALID,99.7765,VALID,-0.0339617,VALID,18.9604,VALID,77,VALID,0.806641,
2003-12-01, 00:20:00,VALID,918.042,VALID,0,VALID,99.8489,VALID,-0.0509425,VALID,18.947,VALID,76,VALID,0.666726,
2003-12-01, 00:21:00,VALID,918.047,VALID,0,VALID,99.924,VALID,-0.0339617,VALID,18.9726,VALID,98,VALID,0.650213,
2003-12-01, 00:22:00,VALID,918.047,VALID,0,VALID,99.987,VALID,0,VALID,19.0176,VALID,89,VALID,0.580305,
2003-12-01, 00:23:00,VALID,918.045,VALID,0,VALID,99.9568,VALID,0,VALID,19.0266,VALID,91,VALID,0.426042,
2003-12-01, 00:24:00,VALID,918.043,VALID,0,VALID,99.8807,VALID,0.0339617,VALID,19.0365,VALID,91,VALID,0.420387,
2003-12-01, 00:25:00,VALID,918.032,VALID,0,VALID,99.854,VALID,0.0339617,VALID,19.0467,VALID,93,VALID,0.505145,
2003-12-01, 00:26:00,VALID,918.022,VALID,0,VALID,99.8133,VALID,0.0339617,VALID,19.0432,VALID,94,VALID,0.741257,
2003-12-01, 00:27:00,VALID,918.017,VALID,0,VALID,99.8299,VALID,0.0169808,VALID,19.0467,VALID,80,VALID,0.613372,
2003-12-01, 00:28:00,VALID,918.002,VALID,0,VALID,99.8337,VALID,0.0169808,VALID,19.0623,VALID,79,VALID,0.68022,
2003-12-01, 00:29:00,VALID,917.988,VALID,0,VALID,99.7663,VALID,0.0169808,VALID,19.0787,VALID,71,VALID,0.401414,
2003-12-01, 00:30:00,VALID,917.98,VALID,0,VALID,99.6251,VALID,0.0509425,VALID,19.0827,VALID,95,VALID,0.31684,
2003-12-01, 00:31:00,VALID,917.963,VALID,0,VALID,99.5514,VALID,0,VALID,19.0566,VALID,98,VALID,0.302083,
2003-12-01, 00:32:00,VALID,917.948,VALID,0,VALID,99.6048,VALID,0,VALID,19.0432,VALID,100,VALID,0.480824,
2003-12-01, 00:33:00,VALID,917.94,VALID,0,VALID,99.6111,VALID,0.0169808,VALID,19.0596,VALID,100,VALID,0.321429,
2003-12-01, 00:34:00,VALID,917.917,VALID,0,VALID,99.6048,VALID,0.0509425,VALID,19.0363,VALID,99,VALID,0.275073,
2003-12-01, 00:35:00,VALID,917.902,VALID,0,VALID,99.5895,VALID,0.0339617,VALID,19.0365,VALID,96,VALID,0.372093,
2003-12-01, 00:36:00,VALID,917.888,VALID,0,VALID,99.5819,VALID,0,VALID,19.0335,VALID,91,VALID,0.426448,
2003-12-01, 00:37:00,VALID,917.861,VALID,0,VALID,99.6264,VALID,0.0509425,VALID,19.0174,VALID,90,VALID,0.569425,
2003-12-01, 00:38:00,VALID,917.842,VALID,0,VALID,99.6836,VALID,0,VALID,19.0174,VALID,84,VALID,0.685023,
2003-12-01, 00:39:00,VALID,917.832,VALID,0,VALID,99.7892,VALID,0.0339617,VALID,19.034,VALID,78,VALID,0.816939,
2003-12-01, 00:40:00,VALID,917.817,VALID,0,VALID,99.8616,VALID,0.0339617,VALID,19.0469,VALID,82,VALID,0.848157,
2003-12-01, 00:41:00,VALID,917.814,VALID,0,VALID,99.9189,VALID,0,VALID,19.0596,VALID,91,VALID,0.674893,
2003-12-01, 00:42:00,VALID,917.796,VALID,0,VALID,99.9049,VALID,0.0509425,VALID,19.0432,VALID,88,VALID,0.665968,
2003-12-01, 00:43:00,VALID,917.785,VALID,0,VALID,99.9316,VALID,0,VALID,19.069,VALID,77,VALID,0.621466,
2003-12-01, 00:44:00,VALID,917.777,VALID,0,VALID,99.9606,VALID,0.0169808,VALID,19.0725,VALID,79,VALID,0.702344,
2003-12-01, 00:45:00,VALID,917.771,VALID,0,VALID,99.9906,VALID,0.0169808,VALID,19.0854,VALID,85,VALID,0.52439,
2003-12-01, 00:46:00,VALID,917.768,VALID,0,VALID,99.9507,VALID,0.0679233,VALID,19.0854,VALID,86,VALID,0.636541,
2003-12-01, 00:47:00,VALID,917.76,VALID,0,VALID,99.8845,VALID,0.0339617,VALID,19.0787,VALID,85,VALID,0.47093,
2003-12-01, 00:48:00,VALID,917.762,VALID,0,VALID,99.8578,VALID,0.0169808,VALID,19.075,VALID,85,VALID,0.402431,
2003-12-01, 00:49:00,VALID,917.772,VALID,0,VALID,99.7892,VALID,0.0679233,VALID,19.0789,VALID,129,VALID,0.703125,
2003-12-01, 00:50:00,VALID,917.753,VALID,0,VALID,99.8273,VALID,0.0679233,VALID,19.0653,VALID,132,VALID,0.803285,
2003-12-01, 00:51:00,VALID,917.75,VALID,0,VALID,99.8489,VALID,0,VALID,19.0859,VALID,105,VALID,0.90516,
2003-12-01, 00:52:00,VALID,917.742,VALID,0,VALID,99.7396,VALID,-0.0169808,VALID,19.0769,VALID,98,VALID,0.611413,
2003-12-01, 00:53:00,VALID,917.737,VALID,0,VALID,99.7218,VALID,-0.0679233,VALID,19.0737,VALID,89,VALID,0.495536,
2003-12-01, 00:54:00,VALID,917.717,VALID,0,VALID,99.7167,VALID,-0.0509425,VALID,19.0705,VALID,89,VALID,0.571265,
2003-12-01, 00:55:00,VALID,917.711,VALID,0,VALID,99.7587,VALID,-0.0849042,VALID,19.0672,VALID,83,VALID,0.426136,
2003-12-01, 00:56:00,VALID,917.687,VALID,0,VALID,99.7485,VALID,-0.0679233,VALID,19.0541,VALID,74,VALID,0.538194,
2003-12-01, 00:57:00,VALID,917.668,VALID,0,VALID,99.8032,VALID,-0.0849042,VALID,19.0642,VALID,66,VALID,0.606027,
2003-12-01, 00:58:00,VALID,917.657,VALID,0,VALID,99.8273,VALID,-0.0679233,VALID,19.07,VALID,68,VALID,0.603051,
2003-12-01, 00:59:00,VALID,917.634,VALID,0,VALID,99.779,VALID,-0.0339617,VALID,19.0772,VALID,85,VALID,0.392773,
2003-12-01, 01:00:00,VALID,917.613,VALID,0,VALID,99.751,VALID,-0.0679233,VALID,19.0739,VALID,85,VALID,0.396019,
2003-12-01, 01:01:00,VALID,917.602,VALID,0,VALID,99.7752,VALID,-0.0679233,VALID,19.0642,VALID,85,VALID,0.302557,
2003-12-01, 01:02:00,VALID,917.578,VALID,0,VALID,99.7917,VALID,-0.0849042,VALID,19.0675,VALID,85,VALID,0.248857,
2003-12-01, 01:03:00,VALID,917.576,VALID,0,VALID,99.8235,VALID,-0.0849042,VALID,19.0573,VALID,85,VALID,0.258721,
2003-12-01, 01:04:00,VALID,917.554,VALID,0,VALID,99.8756,VALID,-0.0679233,VALID,19.0769,VALID,89,VALID,0.486192,
2003-12-01, 01:05:00,VALID,917.553,VALID,0,VALID,99.8833,VALID,-0.0339617,VALID,19.0732,VALID,89,VALID,0.544667,
2003-12-01, 01:06:00,VALID,917.536,VALID,0,VALID,99.9023,VALID,-0.0169808,VALID,19.0829,VALID,89,VALID,0.510719,
2003-12-01, 01:07:00,VALID,917.537,VALID,0,VALID,99.9163,VALID,0.0339617,VALID,19.0718,VALID,92,VALID,0.446243,
2003-12-01, 01:08:00,VALID,917.528,VALID,0,VALID,99.896,VALID,0.0849042,VALID,19.0591,VALID,92,VALID,0.517805,
2003-12-01, 01:09:00,VALID,917.533,VALID,0,VALID,99.8795,VALID,0.0509425,VALID,19.0626,VALID,104,VALID,0.514353,
2003-12-01, 01:10:00,VALID,917.525,VALID,0,VALID,99.8934,VALID,0.0169808,VALID,19.0596,VALID,122,VALID,0.564986,
2003-12-01, 01:11:00,VALID,917.537,VALID,0,VALID,99.8985,VALID,0.0849042,VALID,19.0261,VALID,121,VALID,0.525724,
2003-12-01, 01:12:00,VALID,917.531,VALID,0,VALID,99.9176,VALID,0.0339617,VALID,19.0367,VALID,122,VALID,0.386632,
2003-12-01, 01:13:00,VALID,917.536,VALID,0,VALID,99.9494,VALID,0.0169808,VALID,19.027,VALID,123,VALID,0.413681,
2003-12-01, 01:14:00,VALID,917.536,VALID,0,VALID,99.9863,VALID,0.0509425,VALID,19.0236,VALID,122,VALID,0.109766,
2003-12-01, 01:15:00,VALID,917.538,VALID,0,VALID,99.9733,VALID,0.0169808,VALID,19.0303,VALID,122,VALID,0.0101902,
2003-12-01, 01:16:00,VALID,917.526,VALID,0,VALID,99.971,VALID,0.0509425,VALID,19.0275,VALID,122,VALID,0.0454215,
2003-12-01, 01:17:00,VALID,917.516,VALID,0,VALID,99.9708,VALID,0.0169808,VALID,19.0174,VALID,122,VALID,0.0806686,
2003-12-01, 01:18:00,VALID,917.498,VALID,0,VALID,99.9822,VALID,0,VALID,19.0141,VALID,122,VALID,0.0524554,
2003-12-01, 01:19:00,VALID,917.485,VALID,0,VALID,99.9957,VALID,0.0339617,VALID,19.0206,VALID,122,VALID,0,
2003-12-01, 01:20:00,VALID,917.478,VALID,0,VALID,99.988,VALID,0.0169808,VALID,19.0273,VALID,122,VALID,0.0165128,
2003-12-01, 01:21:00,VALID,917.47,VALID,0,VALID,99.9761,VALID,0.0849042,VALID,19.0109,VALID,122,VALID,0.349144,
2003-12-01, 01:22:00,VALID,917.465,VALID,0,VALID,99.999,VALID,0.0169808,VALID,19.004,VALID,122,VALID,0.572656,
2003-12-01, 01:23:00,VALID,917.457,VALID,0,VALID,100,VALID,0.0509425,VALID,19.0139,VALID,115,VALID,0.47526,
2003-12-01, 01:24:00,VALID,917.422,VALID,0,VALID,100,VALID,0.0169808,VALID,19.0238,VALID,110,VALID,0.429878,
2003-12-01, 01:25:00,VALID,917.393,VALID,0,VALID,100,VALID,0.0339617,VALID,19.0206,VALID,81,VALID,0.576637,
2003-12-01, 01:26:00,VALID,917.369,VALID,0,VALID,100,VALID,0.0679233,VALID,19.0596,VALID,73,VALID,0.641897,
2003-12-01, 01:27:00,VALID,917.345,VALID,0,VALID,100,VALID,0.0509425,VALID,19.0688,VALID,73,VALID,0.571528,
2003-12-01, 01:28:00,VALID,917.323,VALID,0,VALID,100,VALID,0.0509425,VALID,19.0658,VALID,73,VALID,0.628906,
2003-12-01, 01:29:00,VALID,917.308,VALID,0,VALID,100,VALID,0.0169808,VALID,19.0492,VALID,73,VALID,0.672433,
2003-12-01, 01:30:00,VALID,917.293,VALID,0,VALID,100,VALID,0.0339617,VALID,19.0626,VALID,72,VALID,0.736281,
2003-12-01, 01:31:00,VALID,917.301,VALID,0,VALID,100,VALID,0.0169808,VALID,19.0693,VALID,68,VALID,0.788154,
2003-12-01, 01:32:00,VALID,917.307,VALID,0,VALID,100,VALID,0.0169808,VALID,19.0626,VALID,67,VALID,0.787874,
2003-12-01, 01:33:00,VALID,917.32,VALID,0,VALID,99.9916,VALID,0.0509425,VALID,19.063,VALID,57,VALID,0.675876,
2003-12-01, 01:34:00,VALID,917.332,VALID,0,VALID,99.9316,VALID,0.0169808,VALID,19.037,VALID,46,VALID,0.797433,
2003-12-01, 01:35:00,VALID,917.334,VALID,0,VALID,99.9392,VALID,0.0849042,VALID,19.03,VALID,41,VALID,0.826172,
2003-12-01, 01:36:00,VALID,917.327,VALID,0,VALID,99.9825,VALID,-0.0169808,VALID,19.031,VALID,63,VALID,0.715799,
2003-12-01, 01:37:00,VALID,917.31,VALID,0,VALID,99.9911,VALID,-0.0509425,VALID,19.0412,VALID,66,VALID,0.554332,
2003-12-01, 01:38:00,VALID,917.288,VALID,0,VALID,99.9908,VALID,-0.0849042,VALID,19.055,VALID,46,VALID,0.523251,
2003-12-01, 01:39:00,VALID,917.274,VALID,0,VALID,99.9494,VALID,-0.0679233,VALID,19.0414,VALID,30,VALID,0.621366,
2003-12-01, 01:40:00,VALID,917.244,VALID,0,VALID,99.9011,VALID,-0.0849042,VALID,19.0255,VALID,34,VALID,0.433036,
2003-12-01, 01:41:00,VALID,917.231,VALID,0,VALID,99.8947,VALID,-0.0849042,VALID,19.0123,VALID,34,VALID,0.299107,
2003-12-01, 01:42:00,VALID,917.201,VALID,0,VALID,99.8998,VALID,-0.0509425,VALID,18.9893,VALID,34,VALID,0.371185,
2003-12-01, 01:43:00,VALID,917.178,VALID,0,VALID,99.8616,VALID,-0.0509425,VALID,18.9833,VALID,34,VALID,0.44549,
2003-12-01, 01:44:00,VALID,917.167,VALID,0,VALID,99.8871,VALID,-0.0679233,VALID,18.9773,VALID,37,VALID,0.541921,
2003-12-01, 01:45:00,VALID,917.15,VALID,0,VALID,99.9329,VALID,-0.0679233,VALID,18.9669,VALID,41,VALID,0.466546,
2003-12-01, 01:46:00,VALID,917.125,VALID,0,VALID,99.9583,VALID,-0.0849042,VALID,18.9701,VALID,41,VALID,0.274926,
2003-12-01, 01:47:00,VALID,917.128,VALID,0,VALID,99.9634,VALID,-0.0679233,VALID,18.9701,VALID,41,VALID,0.358842,
2003-12-01, 01:48:00,VALID,917.091,VALID,0,VALID,99.9957,VALID,-0.0679233,VALID,18.9537,VALID,41,VALID,0.37066,
2003-12-01, 01:49:00,VALID,917.072,VALID,0,VALID,100,VALID,-0.0849042,VALID,18.9639,VALID,41,VALID,0.422447,
2003-12-01, 01:50:00,VALID,917.046,VALID,0,VALID,100,VALID,-0.0679233,VALID,18.9674,VALID,43,VALID,0.523438,
2003-12-01, 01:51:00,VALID,917.029,VALID,0,VALID,100,VALID,-0.0169808,VALID,18.9507,VALID,49,VALID,0.634448,
2003-12-01, 01:52:00,VALID,916.996,VALID,0,VALID,100,VALID,0.0169808,VALID,18.9466,VALID,55,VALID,0.787348,
2003-12-01, 01:53:00,VALID,916.974,VALID,0,VALID,100,VALID,0.0509425,VALID,18.9302,VALID,57,VALID,0.800391,
2003-12-01, 01:54:00,VALID,916.956,VALID,0,VALID,100,VALID,0.0509425,VALID,18.9269,VALID,67,VALID,0.773056,
2003-12-01, 01:55:00,VALID,916.931,VALID,0,VALID,100,VALID,0.0679233,VALID,18.8877,VALID,69,VALID,0.757813,
2003-12-01, 01:56:00,VALID,916.91,VALID,0,VALID,100,VALID,0.0509425,VALID,18.8723,VALID,69,VALID,0.600654,
2003-12-01, 01:57:00,VALID,916.887,VALID,0,VALID,100,VALID,0.0339617,VALID,18.8524,VALID,70,VALID,0.445513,
2003-12-01, 01:58:00,VALID,916.868,VALID,0,VALID,100,VALID,0.0339617,VALID,18.8589,VALID,97,VALID,0.54668,
2003-12-01, 01:59:00,VALID,916.859,VALID,0,VALID,100,VALID,0.0169808,VALID,18.888,VALID,113,VALID,0.637695,
2003-12-01, 02:00:00,VALID,916.854,VALID,0,VALID,100,VALID,0.0509425,VALID,18.9173,VALID,118,VALID,0.836682,
2003-12-01, 02:01:00,VALID,916.854,VALID,0,VALID,100,VALID,0.0339617,VALID,18.956,VALID,116,VALID,0.679883,
2003-12-01, 02:02:00,VALID,916.841,VALID,0,VALID,100,VALID,0.0169808,VALID,18.9687,VALID,116,VALID,0.558308,
2003-12-01, 02:03:00,VALID,916.835,VALID,0,VALID,100,VALID,0.0169808,VALID,18.9851,VALID,116,VALID,0.220203,
2003-12-01, 02:04:00,VALID,916.835,VALID,0,VALID,100,VALID,0.0509425,VALID,19.0049,VALID,115,VALID,0.276414,
2003-12-01, 02:05:00,VALID,916.826,VALID,0,VALID,100,VALID,0.0169808,VALID,18.9985,VALID,112,VALID,0.127604,
2003-12-01, 02:06:00,VALID,916.818,VALID,0,VALID,100,VALID,0,VALID,18.9751,VALID,110,VALID,0.156072,
2003-12-01, 02:07:00,VALID,916.816,VALID,0,VALID,100,VALID,-0.0169808,VALID,18.9627,VALID,110,VALID,0,
2003-12-01, 02:08:00,VALID,916.805,VALID,0,VALID,100,VALID,0,VALID,18.9495,VALID,110,VALID,0,
2003-12-01, 02:09:00,VALID,916.8,VALID,0,VALID,100,VALID,0.0339617,VALID,18.9498,VALID,110,VALID,0,
2003-12-01, 02:10:00,VALID,916.793,VALID,0,VALID,100,VALID,-0.0169808,VALID,18.9336,VALID,110,VALID,0,
2003-12-01, 02:11:00,VALID,916.787,VALID,0,VALID,100,VALID,0.0169808,VALID,18.924,VALID,110,VALID,0,
2003-12-01, 02:12:00,VALID,916.792,VALID,0,VALID,100,VALID,0,VALID,18.908,VALID,110,VALID,0,
2003-12-01, 02:13:00,VALID,916.783,VALID,0,VALID,100,VALID,0.0169808,VALID,18.8949,VALID,110,VALID,0.11471,
2003-12-01, 02:14:00,VALID,916.765,VALID,0,VALID,100,VALID,0,VALID,18.9046,VALID,110,VALID,0.3367,
2003-12-01, 02:15:00,VALID,916.757,VALID,0,VALID,100,VALID,-0.0169808,VALID,18.9175,VALID,110,VALID,0.352134,
2003-12-01, 02:16:00,VALID,916.759,VALID,0,VALID,100,VALID,0,VALID,18.9366,VALID,110,VALID,0.387386,
2003-12-01, 02:17:00,VALID,916.743,VALID,0,VALID,100,VALID,-0.0169808,VALID,18.9632,VALID,110,VALID,0.233041,
2003-12-01, 02:18:00,VALID,916.731,VALID,0,VALID,100,VALID,-0.0339617,VALID,18.9729,VALID,110,VALID,0.117551,
2003-12-01, 02:19:00,VALID,916.738,VALID,0,VALID,100,VALID,-0.0169808,VALID,18.9373,VALID,110,VALID,0,
2003-12-01, 02:20:00,VALID,916.733,VALID,0,VALID,100,VALID,0.0339617,VALID,18.8947,VALID,110,VALID,0.00090843,
2003-12-01, 02:21:00,VALID,916.722,VALID,0,VALID,100,VALID,0,VALID,18.8626,VALID,110,VALID,0,
2003-12-01, 02:22:00,VALID,916.717,VALID,0,VALID,100,VALID,0,VALID,18.8435,VALID,110,VALID,0.0377287,
2003-12-01, 02:23:00,VALID,916.698,VALID,0,VALID,100,VALID,0,VALID,18.834,VALID,110,VALID,0.081032,
2003-12-01, 02:24:00,VALID,916.691,VALID,0,VALID,100,VALID,-0.0169808,VALID,18.837,VALID,110,VALID,0.00426136,
2003-12-01, 02:25:00,VALID,916.668,VALID,0,VALID,100,VALID,0,VALID,18.8437,VALID,110,VALID,0,
2003-12-01, 02:26:00,VALID,916.664,VALID,0,VALID,100,VALID,-0.0169808,VALID,18.8241,VALID,110,VALID,0,
2003-12-01, 02:27:00,VALID,916.654,VALID,0,VALID,100,VALID,0.0169808,VALID,18.805,VALID,110,VALID,0,
2003-12-01, 02:28:00,VALID,916.643,VALID,0,VALID,100,VALID,0,VALID,18.8502,VALID,110,VALID,0,
2003-12-01, 02:29:00,VALID,916.625,VALID,0,VALID,100,VALID,-0.0169808,VALID,18.8628,VALID,110,VALID,0,
2003-12-01, 02:30:00,VALID,916.615,VALID,0,VALID,100,VALID,0,VALID,18.876,VALID,110,VALID,0,
2003-12-01, 02:31:00,VALID,916.609,VALID,0,VALID,100,VALID,-0.0169808,VALID,18.8499,VALID,110,VALID,0,
2003-12-01, 02:32:00,VALID,916.587,VALID,0,VALID,100,VALID,0,VALID,18.8109,VALID,110,VALID,0,
2003-12-01, 02:33:00,VALID,916.575,VALID,0,VALID,100,VALID,-0.0679233,VALID,18.7955,VALID,110,VALID,0,
2003-12-01, 02:34:00,VALID,916.56,VALID,0,VALID,100,VALID,0,VALID,18.7632,VALID,110,VALID,0,
2003-12-01, 02:35:00,VALID,916.542,VALID,0,VALID,100,VALID,0,VALID,18.7568,VALID,110,VALID,0,
2003-12-01, 02:36:00,VALID,916.537,VALID,0,VALID,100,VALID,0.0169808,VALID,18.7434,VALID,110,VALID,0,
2003-12-01, 02:37:00,VALID,916.518,VALID,0,VALID,100,VALID,0.0169808,VALID,18.7431,VALID,110,VALID,0,
2003-12-01, 02:38:00,VALID,916.51,VALID,0,VALID,100,VALID,-0.0169808,VALID,18.7466,VALID,110,VALID,0,
2003-12-01, 02:39:00,VALID,916.498,VALID,0,VALID,100,VALID,-0.0169808,VALID,18.7468,VALID,110,VALID,0,
2003-12-01, 02:40:00,VALID,916.502,VALID,0,VALID,100,VALID,-0.0169808,VALID,18.7302,VALID,110,VALID,0,
2003-12-01, 02:41:00,VALID,916.481,VALID,0,VALID,100,VALID,0,VALID,18.7109,VALID,110,VALID,0,
2003-12-01, 02:42:00,VALID,916.473,VALID,0,VALID,99.9926,VALID,0.0169808,VALID,18.6624,VALID,110,VALID,0,
2003-12-01, 02:43:00,VALID,916.469,VALID,0,VALID,99.9748,VALID,-0.0169808,VALID,18.6435,VALID,110,VALID,0,
2003-12-01, 02:44:00,VALID,916.457,VALID,0,VALID,99.9608,VALID,-0.0169808,VALID,18.614,VALID,110,VALID,0,
2003-12-01, 02:45:00,VALID,916.445,VALID,0,VALID,99.9367,VALID,0,VALID,18.5882,VALID,101,VALID,0.078311,
2003-12-01, 02:46:00,VALID,916.441,VALID,0,VALID,99.9354,VALID,-0.0169808,VALID,18.5822,VALID,70,VALID,0.478516,
2003-12-01, 02:47:00,VALID,916.419,VALID,0,VALID,99.9532,VALID,-0.0169808,VALID,18.5591,VALID,61,VALID,0.478924,
2003-12-01, 02:48:00,VALID,916.416,VALID,0,VALID,99.9941,VALID,0,VALID,18.576,VALID,58,VALID,0.444097,
2003-12-01, 02:49:00,VALID,916.393,VALID,0,VALID,100,VALID,-0.0169808,VALID,18.5889,VALID,58,VALID,0.620046,
2003-12-01, 02:50:00,VALID,916.381,VALID,0,VALID,100,VALID,-0.0339617,VALID,18.6214,VALID,58,VALID,0.408612,
2003-12-01, 02:51:00,VALID,916.371,VALID,0,VALID,100,VALID,0,VALID,18.6112,VALID,53,VALID,0.463542,
2003-12-01, 02:52:00,VALID,916.357,VALID,0,VALID,100,VALID,-0.0169808,VALID,18.5919,VALID,46,VALID,0.317645,
2003-12-01, 02:53:00,VALID,916.34,VALID,0,VALID,100,VALID,0,VALID,18.5824,VALID,46,VALID,0.205602,
2003-12-01, 02:54:00,VALID,916.325,VALID,0,VALID,100,VALID,-0.0169808,VALID,18.5628,VALID,46,VALID,0.183503,
2003-12-01, 02:55:00,VALID,916.291,VALID,0,VALID,100,VALID,-0.0169808,VALID,18.5268,VALID,46,VALID,0.210756,
2003-12-01, 02:56:00,VALID,916.293,VALID,0,VALID,100,VALID,0,VALID,18.5243,VALID,46,VALID,0.338118,
2003-12-01, 02:57:00,VALID,916.272,VALID,0,VALID,100,VALID,-0.0169808,VALID,18.5499,VALID,46,VALID,0.435268,
2003-12-01, 02:58:00,VALID,916.263,VALID,0,VALID,100,VALID,-0.0169808,VALID,18.5789,VALID,46,VALID,0.422783,
2003-12-01, 02:59:00,VALID,916.237,VALID,0,VALID,100,VALID,-0.0169808,VALID,18.5949,VALID,47,VALID,0.378405,
2003-12-01, 03:00:00,VALID,916.225,VALID,0,VALID,100,VALID,0,VALID,18.6112,VALID,73,VALID,0.388719,
2003-12-01, 03:01:00,VALID,916.208,VALID,0,VALID,100,VALID,0,VALID,18.6117,VALID,96,VALID,0.546875,
2003-12-01, 03:02:00,VALID,916.196,VALID,0,VALID,100,VALID,-0.0509425,VALID,18.5981,VALID,103,VALID,0.593205,
2003-12-01, 03:03:00,VALID,916.193,VALID,0,VALID,100,VALID,-0.0339617,VALID,18.6082,VALID,107,VALID,0.60637,
2003-12-01, 03:04:00,VALID,916.197,VALID,0,VALID,100,VALID,-0.0339617,VALID,18.6209,VALID,107,VALID,0.554688,
2003-12-01, 03:05:00,VALID,916.199,VALID,0,VALID,100,VALID,-0.0169808,VALID,18.6179,VALID,107,VALID,0.380382,
2003-12-01, 03:06:00,VALID,916.205,VALID,0,VALID,100,VALID,0,VALID,18.647,VALID,107,VALID,0.421026,
2003-12-01, 03:07:00,VALID,916.216,VALID,0,VALID,100,VALID,-0.0169808,VALID,18.6438,VALID,107,VALID,0.287007,
2003-12-01, 03:08:00,VALID,916.21,VALID,0,VALID,100,VALID,0,VALID,18.6373,VALID,107,VALID,0.120722,
2003-12-01, 03:09:00,VALID,916.225,VALID,0,VALID,100,VALID,-0.0169808,VALID,18.6313,VALID,107,VALID,0,
2003-12-01, 03:10:00,VALID,916.223,VALID,0,VALID,100,VALID,0,VALID,18.6345,VALID,107,VALID,0.00109012,
2003-12-01, 03:11:00,VALID,916.223,VALID,0,VALID,100,VALID,0.0169808,VALID,18.6475,VALID,107,VALID,0,
2003-12-01, 03:12:00,VALID,916.21,VALID,0,VALID,100,VALID,0,VALID,18.6415,VALID,107,VALID,0,
2003-12-01, 03:13:00,VALID,916.221,VALID,0,VALID,100,VALID,0,VALID,18.6442,VALID,107,VALID,0,
2003-12-01, 03:14:00,VALID,916.219,VALID,0,VALID,100,VALID,0,VALID,18.6308,VALID,107,VALID,0,
2003-12-01, 03:15:00,VALID,916.211,VALID,0,VALID,100,VALID,0,VALID,18.6089,VALID,107,VALID,0,
2003-12-01, 03:16:00,VALID,916.19,VALID,0,VALID,100,VALID,-0.0169808,VALID,18.5633,VALID,107,VALID,0,
2003-12-01, 03:17:00,VALID,916.183,VALID,0,VALID,100,VALID,0,VALID,18.5476,VALID,107,VALID,0,
2003-12-01, 03:18:00,VALID,916.176,VALID,0,VALID,100,VALID,-0.0169808,VALID,18.5411,VALID,107,VALID,0,
2003-12-01, 03:19:00,VALID,916.168,VALID,0,VALID,100,VALID,0,VALID,18.5476,VALID,107,VALID,0,
2003-12-01, 03:20:00,VALID,916.161,VALID,0,VALID,100,VALID,0,VALID,18.557,VALID,107,VALID,0.20625,
2003-12-01, 03:21:00,VALID,916.147,VALID,0,VALID,100,VALID,0,VALID,18.56,VALID,114,VALID,0.321987,
2003-12-01, 03:22:00,VALID,916.135,VALID,0,VALID,100,VALID,0,VALID,18.5767,VALID,115,VALID,0.190225,
2003-12-01, 03:23:00,VALID,916.118,VALID,0,VALID,100,VALID,0,VALID,18.5794,VALID,115,VALID,0.0596591,
2003-12-01, 03:24:00,VALID,916.111,VALID,0,VALID,100,VALID,0,VALID,18.5831,VALID,115,VALID,0.0966082,
2003-12-01, 03:25:00,VALID,916.102,VALID,0,VALID,100,VALID,0.0169808,VALID,18.5697,VALID,115,VALID,0.11859,
2003-12-01, 03:26:00,VALID,916.109,VALID,0,VALID,100,VALID,-0.0169808,VALID,18.57,VALID,115,VALID,0,
2003-12-01, 03:27:00,VALID,916.106,VALID,0,VALID,100,VALID,0,VALID,18.57,VALID,115,VALID,0,
2003-12-01, 03:28:00,VALID,916.101,VALID,0,VALID,100,VALID,0,VALID,18.5658,VALID,115,VALID,0.104297,
2003-12-01, 03:29:00,VALID,916.104,VALID,0,VALID,100,VALID,0,VALID,18.5697,VALID,115,VALID,0.299306,
2003-12-01, 03:30:00,VALID,916.106,VALID,0,VALID,100,VALID,-0.0169808,VALID,18.5434,VALID,115,VALID,0.206555,
2003-12-01, 03:31:00,VALID,916.122,VALID,0,VALID,100,VALID,0,VALID,18.5407,VALID,115,VALID,0.0392361,
2003-12-01, 03:32:00,VALID,916.113,VALID,0,VALID,100,VALID,0,VALID,18.5114,VALID,115,VALID,0.102734,
2003-12-01, 03:33:00,VALID,916.111,VALID,0,VALID,100,VALID,0.0169808,VALID,18.4915,VALID,115,VALID,0.300959,
2003-12-01, 03:34:00,VALID,916.112,VALID,0,VALID,100,VALID,0,VALID,18.4724,VALID,115,VALID,0.170785,
2003-12-01, 03:35:00,VALID,916.116,VALID,0,VALID,100,VALID,-0.0169808,VALID,18.4796,VALID,115,VALID,0.202744,
2003-12-01, 03:36:00,VALID,916.12,VALID,0,VALID,100,VALID,-0.0509425,VALID,18.4604,VALID,115,VALID,0.304492,
2003-12-01, 03:37:00,VALID,916.11,VALID,0,VALID,100,VALID,-0.101885,VALID,18.4676,VALID,115,VALID,0.0134766,
2003-12-01, 03:38:00,VALID,916.108,VALID,0,VALID,100,VALID,-0.101885,VALID,18.4611,VALID,115,VALID,0,
2003-12-01, 03:39:00,VALID,916.099,VALID,0,VALID,100,VALID,-0.0849042,VALID,18.4904,VALID,115,VALID,0,
2003-12-01, 03:40:00,VALID,916.078,VALID,0,VALID,100,VALID,0,VALID,18.4952,VALID,115,VALID,0,
2003-12-01, 03:41:00,VALID,916.076,VALID,0,VALID,100,VALID,0.0169808,VALID,18.5508,VALID,115,VALID,0.0735394,